Time,TemperatureF,DewpointF,PressureIn,WindDirection,WindDirectionDegrees,WindSpeedMPH,WindSpeedGustMPH,Humidity,HourlyPrecipIn,Conditions,Clouds,dailyrainin,SoftwareType,DateUTC
2013-02-11 00:00:00,39.9,39.4,29.34,SSE,161,2.7,2.7,98,0.00,,,0.00,VWS V14.00,2013-02-11 05:00:00,
2013-02-11 00:01:00,39.9,39.4,29.34,South,178,0.0,3.6,98,0.00,,,0.00,VWS V14.00,2013-02-11 05:01:00,
2013-02-11 00:02:00,39.9,39.4,29.34,South,190,6.3,6.3,98,0.00,,,0.00,VWS V14.00,2013-02-11 05:02:00,
2013-02-11 00:07:00,39.9,39.4,29.34,SSW,194,0.0,0.0,98,0.00,,,0.00,VWS V14.00,2013-02-11 05:07:00,
2013-02-11 00:13:00,39.9,39.4,29.31,SSE,160,0.0,3.1,98,0.00,,,0.00,VWS V14.00,2013-02-11 05:13:00,
2013-02-11 00:18:00,39.9,39.4,29.31,South,184,4.9,4.9,98,0.00,,,0.00,VWS V14.00,2013-02-11 05:18:00,
2013-02-11 00:23:00,40.1,39.6,29.31,SW,217,6.3,6.3,98,0.00,,,0.00,VWS V14.00,2013-02-11 05:23:00,
2013-02-11 00:29:00,40.3,39.8,29.34,SE,131,3.1,4.5,98,0.00,,,0.00,VWS V14.00,2013-02-11 05:29:00,
2013-02-11 00:34:00,40.5,39.9,29.34,SSW,202,3.1,3.1,98,0.00,,,0.00,VWS V14.00,2013-02-11 05:34:00,
2013-02-11 00:40:00,40.5,39.9,29.34,SSW,201,3.1,4.0,98,0.00,,,0.00,VWS V14.00,2013-02-11 05:40:00,
2013-02-11 00:45:00,40.6,40.1,29.34,South,188,5.4,5.8,98,0.00,,,0.00,VWS V14.00,2013-02-11 05:45:00,
2013-02-11 00:51:00,41.0,40.5,29.34,SSW,195,3.1,3.6,98,0.00,,,0.00,VWS V14.00,2013-02-11 05:51:00,
2013-02-11 00:56:00,41.0,40.5,29.34,South,188,8.1,10.1,98,0.00,,,0.00,VWS V14.00,2013-02-11 05:56:00,
2013-02-11 01:02:00,41.4,40.8,29.34,SSW,204,5.4,7.6,98,0.00,,,0.00,VWS V14.00,2013-02-11 06:02:00,
2013-02-11 01:08:00,41.7,41.2,29.34,SW,219,5.4,5.4,98,0.00,,,0.00,VWS V14.00,2013-02-11 06:08:00,
2013-02-11 01:13:00,41.5,41.0,29.31,SSW,208,4.0,5.8,98,0.00,,,0.00,VWS V14.00,2013-02-11 06:13:00,
2013-02-11 01:18:00,41.5,41.0,29.31,SSW,205,8.3,8.3,98,0.00,,,0.00,VWS V14.00,2013-02-11 06:18:00,
2013-02-11 01:23:00,41.7,41.2,29.31,SSE,158,0.0,7.6,98,0.00,,,0.00,VWS V14.00,2013-02-11 06:23:00,
2013-02-11 01:29:00,41.9,41.4,29.31,SSW,206,5.4,8.3,98,0.00,,,0.00,VWS V14.00,2013-02-11 06:29:00,
2013-02-11 01:34:00,42.3,41.7,29.31,SSW,193,12.3,12.8,98,0.00,,,0.00,VWS V14.00,2013-02-11 06:34:00,
2013-02-11 01:39:00,42.4,41.9,29.31,SSW,198,5.8,5.8,98,0.00,,,0.00,VWS V14.00,2013-02-11 06:39:00,
2013-02-11 01:44:00,42.4,41.9,29.31,SSW,197,8.1,8.1,98,0.00,,,0.00,VWS V14.00,2013-02-11 06:44:00,
2013-02-11 01:50:00,42.4,41.9,29.31,SSW,206,5.4,7.2,98,0.00,,,0.00,VWS V14.00,2013-02-11 06:50:00,
2013-02-11 01:55:00,42.4,41.9,29.31,SSW,201,8.1,10.1,98,0.00,,,0.00,VWS V14.00,2013-02-11 06:55:00,
2013-02-11 02:01:00,42.6,42.1,29.31,SW,229,8.7,8.7,98,0.00,,,0.00,VWS V14.00,2013-02-11 07:01:00,
2013-02-11 02:07:00,42.8,42.3,29.31,SSW,207,6.3,6.3,98,0.00,,,0.00,VWS V14.00,2013-02-11 07:07:00,
2013-02-11 02:12:00,42.8,42.3,29.31,SSW,195,5.8,5.8,98,0.00,,,0.00,VWS V14.00,2013-02-11 07:12:00,
2013-02-11 02:17:00,42.8,42.3,29.31,SSW,204,6.7,6.7,98,0.00,,,0.00,VWS V14.00,2013-02-11 07:17:00,
2013-02-11 02:22:00,42.8,42.3,29.31,SW,216,6.3,7.6,98,0.00,,,0.00,VWS V14.00,2013-02-11 07:22:00,
2013-02-11 02:27:00,42.8,42.3,29.31,SSW,199,6.3,6.3,98,0.00,,,0.00,VWS V14.00,2013-02-11 07:27:00,
2013-02-11 02:33:00,42.6,42.1,29.31,SSW,201,5.4,5.4,98,0.00,,,0.00,VWS V14.00,2013-02-11 07:33:00,
2013-02-11 02:39:00,42.4,41.9,29.31,SSW,212,5.4,5.4,98,0.00,,,0.00,VWS V14.00,2013-02-11 07:39:00,
2013-02-11 02:44:00,42.4,41.9,29.31,SSW,210,6.3,6.3,98,0.00,,,0.00,VWS V14.00,2013-02-11 07:44:00,
2013-02-11 02:49:00,42.4,41.9,29.31,SSW,209,3.1,3.6,98,0.00,,,0.00,VWS V14.00,2013-02-11 07:49:00,
2013-02-11 02:54:00,42.1,41.6,29.31,SSW,203,2.7,6.3,98,0.00,,,0.00,VWS V14.00,2013-02-11 07:54:00,
2013-02-11 02:59:00,42.1,41.6,29.31,SSW,206,3.1,3.1,98,0.00,,,0.00,VWS V14.00,2013-02-11 07:59:00,
2013-02-11 03:04:00,41.7,41.2,29.31,West,268,8.3,8.3,98,0.00,,,0.00,VWS V14.00,2013-02-11 08:04:00,
2013-02-11 03:10:00,41.5,41.0,29.31,SW,226,10.1,11.4,98,0.00,,,0.00,VWS V14.00,2013-02-11 08:10:00,
2013-02-11 03:15:00,41.5,41.0,29.31,SSW,200,4.9,5.4,98,0.00,,,0.00,VWS V14.00,2013-02-11 08:15:00,
2013-02-11 03:21:00,41.4,40.8,29.31,SSW,204,5.4,6.3,98,0.00,,,0.00,VWS V14.00,2013-02-11 08:21:00,
2013-02-11 03:26:00,41.4,40.8,29.31,SW,219,8.1,8.1,98,0.00,,,0.00,VWS V14.00,2013-02-11 08:26:00,
2013-02-11 03:32:00,41.2,40.7,29.31,SSW,211,5.4,8.1,98,0.00,,,0.00,VWS V14.00,2013-02-11 08:32:00,
2013-02-11 03:38:00,41.2,40.7,29.31,SW,222,6.3,6.3,98,0.00,,,0.00,VWS V14.00,2013-02-11 08:38:00,
2013-02-11 03:43:00,41.0,40.5,29.31,SW,219,8.7,8.7,98,0.00,,,0.00,VWS V14.00,2013-02-11 08:43:00,
2013-02-11 03:49:00,40.6,40.1,29.31,SW,219,8.7,8.7,98,0.00,,,0.00,VWS V14.00,2013-02-11 08:49:00,
2013-02-11 03:54:00,40.6,40.1,29.31,SSW,198,6.3,7.6,98,0.00,,,0.00,VWS V14.00,2013-02-11 08:54:00,
2013-02-11 03:59:00,40.5,39.9,29.28,SSW,204,7.6,7.6,98,0.00,,,0.00,VWS V14.00,2013-02-11 08:59:00,
2013-02-11 04:04:00,40.5,39.9,29.28,SSW,197,5.8,10.1,98,0.00,,,0.00,VWS V14.00,2013-02-11 09:04:00,
2013-02-11 04:10:00,40.5,39.9,29.28,SSW,211,4.9,4.9,98,0.00,,,0.00,VWS V14.00,2013-02-11 09:10:00,
2013-02-11 04:15:00,40.5,39.9,29.28,WSW,244,2.7,5.8,98,0.00,,,0.00,VWS V14.00,2013-02-11 09:15:00,
2013-02-11 04:21:00,40.3,39.8,29.28,SSW,204,8.3,11.9,98,0.00,,,0.00,VWS V14.00,2013-02-11 09:21:00,
2013-02-11 04:26:00,40.3,39.8,29.28,WSW,238,11.0,11.0,98,0.00,,,0.00,VWS V14.00,2013-02-11 09:26:00,
2013-02-11 04:32:00,40.1,39.6,29.28,SW,236,13.2,15.0,98,0.00,,,0.00,VWS V14.00,2013-02-11 09:32:00,
2013-02-11 04:37:00,39.9,39.1,29.28,SW,220,7.6,11.0,97,0.00,,,0.00,VWS V14.00,2013-02-11 09:37:00,
2013-02-11 04:42:00,39.9,38.6,29.28,SW,225,10.5,10.5,95,0.00,,,0.00,VWS V14.00,2013-02-11 09:42:00,
2013-02-11 04:48:00,39.7,36.8,29.28,West,271,8.1,8.1,89,0.00,,,0.00,VWS V14.00,2013-02-11 09:48:00,
2013-02-11 04:53:00,39.7,36.2,29.28,SSW,207,8.1,11.9,87,0.00,,,0.00,VWS V14.00,2013-02-11 09:53:00,
2013-02-11 04:59:00,39.4,35.5,29.28,SW,218,10.1,10.1,86,0.00,,,0.00,VWS V14.00,2013-02-11 09:59:00,
2013-02-11 05:04:00,39.2,35.4,29.28,SW,229,12.3,12.8,86,0.00,,,0.00,VWS V14.00,2013-02-11 10:04:00,
2013-02-11 05:10:00,39.2,35.4,29.31,West,266,8.3,9.2,86,0.00,,,0.00,VWS V14.00,2013-02-11 10:10:00,
2013-02-11 05:15:00,39.0,35.2,29.31,SW,218,5.4,8.7,86,0.00,,,0.00,VWS V14.00,2013-02-11 10:15:00,
2013-02-11 05:21:00,38.8,35.0,29.31,West,264,5.8,5.8,86,0.00,,,0.00,VWS V14.00,2013-02-11 10:21:00,
2013-02-11 05:27:00,38.5,35.0,29.28,SSW,202,7.6,7.6,87,0.00,,,0.00,VWS V14.00,2013-02-11 10:27:00,
2013-02-11 05:32:00,38.5,35.0,29.28,South,190,12.3,12.3,87,0.00,,,0.00,VWS V14.00,2013-02-11 10:32:00,
2013-02-11 05:38:00,38.3,35.1,29.28,SSW,197,8.3,8.3,88,0.00,,,0.00,VWS V14.00,2013-02-11 10:38:00,
2013-02-11 05:44:00,38.1,34.9,29.31,WSW,239,11.0,17.0,88,0.00,,,0.00,VWS V14.00,2013-02-11 10:44:00,
2013-02-11 05:49:00,37.9,34.7,29.31,SW,218,10.5,10.5,88,0.00,,,0.00,VWS V14.00,2013-02-11 10:49:00,
2013-02-11 05:55:00,37.6,34.3,29.31,WSW,239,13.2,13.2,88,0.00,,,0.00,VWS V14.00,2013-02-11 10:55:00,
2013-02-11 06:00:00,37.2,34.3,29.31,WSW,239,10.5,10.5,89,0.00,,,0.00,VWS V14.00,2013-02-11 11:00:00,
2013-02-11 06:05:00,36.9,33.9,29.31,SW,228,7.6,7.6,89,0.00,,,0.00,VWS V14.00,2013-02-11 11:05:00,
2013-02-11 06:10:00,36.9,33.9,29.31,SW,228,8.1,12.8,89,0.00,,,0.00,VWS V14.00,2013-02-11 11:10:00,
2013-02-11 06:16:00,36.7,34.0,29.31,SW,220,9.6,10.1,90,0.00,,,0.00,VWS V14.00,2013-02-11 11:16:00,
2013-02-11 06:21:00,36.7,34.0,29.31,SW,220,8.1,10.5,90,0.00,,,0.00,VWS V14.00,2013-02-11 11:21:00,
2013-02-11 06:27:00,36.5,33.8,29.31,SW,232,8.7,8.7,90,0.00,,,0.00,VWS V14.00,2013-02-11 11:27:00,
2013-02-11 06:32:00,36.3,33.7,29.31,WSW,239,7.2,8.7,90,0.00,,,0.00,VWS V14.00,2013-02-11 11:32:00,
2013-02-11 06:38:00,36.3,33.7,29.31,SW,226,7.6,8.1,90,0.00,,,0.00,VWS V14.00,2013-02-11 11:38:00,
2013-02-11 06:43:00,36.3,34.0,29.31,SSW,208,11.4,11.4,91,0.00,,,0.00,VWS V14.00,2013-02-11 11:43:00,
2013-02-11 06:48:00,36.3,34.0,29.31,SW,226,6.3,15.4,91,0.00,,,0.00,VWS V14.00,2013-02-11 11:48:00,
2013-02-11 06:54:00,36.1,33.2,29.31,SSW,196,14.1,19.2,89,0.00,,,0.00,VWS V14.00,2013-02-11 11:54:00,
2013-02-11 06:59:00,36.3,33.1,29.31,South,171,12.3,19.7,88,0.00,,,0.00,VWS V14.00,2013-02-11 11:59:00,
2013-02-11 07:05:00,36.3,32.5,29.31,South,181,10.5,16.8,86,0.00,,,0.00,VWS V14.00,2013-02-11 12:05:00,
2013-02-11 07:10:00,36.1,32.1,29.31,SSW,209,10.5,15.0,85,0.00,,,0.00,VWS V14.00,2013-02-11 12:10:00,
2013-02-11 07:15:00,36.0,31.9,29.34,SSW,213,13.2,22.8,85,0.00,,,0.00,VWS V14.00,2013-02-11 12:15:00,
2013-02-11 07:20:00,35.8,31.1,29.34,SW,226,11.0,24.6,83,0.00,,,0.00,VWS V14.00,2013-02-11 12:20:00,
2013-02-11 07:25:00,35.8,30.8,29.34,SSW,206,15.4,15.4,82,0.00,,,0.00,VWS V14.00,2013-02-11 12:25:00,
2013-02-11 07:31:00,35.6,30.7,29.34,South,186,17.4,17.4,82,0.00,,,0.00,VWS V14.00,2013-02-11 12:31:00,
2013-02-11 07:36:00,35.6,30.7,29.34,WNW,298,6.3,12.8,82,0.00,,,0.00,VWS V14.00,2013-02-11 12:36:00,
2013-02-11 07:41:00,35.4,30.5,29.34,SSW,192,13.2,13.2,82,0.00,,,0.00,VWS V14.00,2013-02-11 12:41:00,
2013-02-11 07:47:00,35.2,30.3,29.34,SSW,207,11.9,13.2,82,0.00,,,0.00,VWS V14.00,2013-02-11 12:47:00,
2013-02-11 07:52:00,35.2,30.3,29.34,South,190,11.0,13.2,82,0.00,,,0.00,VWS V14.00,2013-02-11 12:52:00,
2013-02-11 07:58:00,35.1,30.1,29.34,SW,224,15.0,15.0,82,0.00,,,0.00,VWS V14.00,2013-02-11 12:58:00,
2013-02-11 08:03:00,35.1,30.1,29.34,SW,220,14.5,14.5,82,0.00,,,0.00,VWS V14.00,2013-02-11 13:03:00,
2013-02-11 08:09:00,34.9,30.2,29.34,SSW,209,17.4,17.4,83,0.00,,,0.00,VWS V14.00,2013-02-11 13:09:00,
2013-02-11 08:15:00,34.9,30.2,29.34,SW,220,12.3,12.3,83,0.00,,,0.00,VWS V14.00,2013-02-11 13:15:00,
2013-02-11 08:20:00,34.9,30.2,29.34,SSW,210,10.5,15.4,83,0.00,,,0.00,VWS V14.00,2013-02-11 13:20:00,
2013-02-11 08:25:00,34.7,30.1,29.34,SW,236,5.8,11.0,83,0.00,,,0.00,VWS V14.00,2013-02-11 13:25:00,
2013-02-11 08:30:00,34.5,29.9,29.34,SW,227,8.3,21.9,83,0.00,,,0.00,VWS V14.00,2013-02-11 13:30:00,
2013-02-11 08:35:00,34.5,29.9,29.34,SW,232,8.3,8.3,83,0.00,,,0.00,VWS V14.00,2013-02-11 13:35:00,
2013-02-11 08:41:00,34.5,30.2,29.34,SSW,200,13.2,13.2,84,0.00,,,0.00,VWS V14.00,2013-02-11 13:41:00,
2013-02-11 08:46:00,34.5,29.9,29.34,WSW,238,11.0,12.8,83,0.00,,,0.00,VWS V14.00,2013-02-11 13:46:00,
2013-02-11 08:51:00,34.3,29.7,29.34,SSW,198,12.8,12.8,83,0.00,,,0.00,VWS V14.00,2013-02-11 13:51:00,
2013-02-11 08:56:00,34.3,29.7,29.34,SW,233,11.0,15.4,83,0.00,,,0.00,VWS V14.00,2013-02-11 13:56:00,
2013-02-11 09:01:00,34.3,29.7,29.34,SW,236,11.0,13.6,83,0.00,,,0.00,VWS V14.00,2013-02-11 14:01:00,
2013-02-11 09:07:00,34.3,30.0,29.34,SW,231,12.8,15.0,84,0.00,,,0.00,VWS V14.00,2013-02-11 14:07:00,
2013-02-11 09:12:00,34.2,29.8,29.34,SSW,210,8.7,8.7,84,0.00,,,0.00,VWS V14.00,2013-02-11 14:12:00,
2013-02-11 09:18:00,34.2,29.8,29.34,SSW,209,8.7,11.0,84,0.00,,,0.00,VWS V14.00,2013-02-11 14:18:00,
2013-02-11 09:23:00,34.2,29.8,29.34,SW,235,12.8,13.2,84,0.00,,,0.00,VWS V14.00,2013-02-11 14:23:00,
2013-02-11 09:28:00,34.2,29.8,29.34,SW,228,12.8,15.4,84,0.00,,,0.00,VWS V14.00,2013-02-11 14:28:00,
2013-02-11 09:33:00,34.2,29.8,29.34,SW,217,8.7,10.1,84,0.00,,,0.00,VWS V14.00,2013-02-11 14:33:00,
2013-02-11 09:38:00,34.0,30.0,29.34,SW,218,4.9,12.8,85,0.00,,,0.00,VWS V14.00,2013-02-11 14:38:00,
2013-02-11 09:43:00,34.0,30.0,29.34,South,189,15.0,15.4,85,0.00,,,0.00,VWS V14.00,2013-02-11 14:43:00,
2013-02-11 09:48:00,34.0,30.2,29.34,SW,216,12.8,12.8,86,0.00,,,0.00,VWS V14.00,2013-02-11 14:48:00,
2013-02-11 09:54:00,34.0,30.2,29.34,WSW,240,15.0,15.0,86,0.00,,,0.00,VWS V14.00,2013-02-11 14:54:00,
2013-02-11 10:00:00,34.0,30.5,29.34,SW,225,9.6,9.6,87,0.00,,,0.00,VWS V14.00,2013-02-11 15:00:00,
2013-02-11 10:05:00,33.8,30.6,29.34,South,183,13.2,13.2,88,0.00,,,0.00,VWS V14.00,2013-02-11 15:05:00,
2013-02-11 10:11:00,33.6,30.7,29.34,SSW,199,15.0,15.0,89,0.00,,,0.00,VWS V14.00,2013-02-11 15:11:00,
2013-02-11 10:16:00,33.6,31.0,29.34,SSW,212,10.1,12.8,90,0.00,,,0.00,VWS V14.00,2013-02-11 15:16:00,
2013-02-11 10:21:00,33.6,31.3,29.34,WSW,250,11.0,12.8,91,0.00,,,0.00,VWS V14.00,2013-02-11 15:21:00,
2013-02-11 10:26:00,33.4,31.4,29.36,SSW,206,12.3,12.8,92,0.00,,,0.00,VWS V14.00,2013-02-11 15:26:00,
2013-02-11 10:31:00,33.4,31.6,29.36,SSW,202,13.2,13.2,93,0.00,,,0.00,VWS V14.00,2013-02-11 15:31:00,
2013-02-11 10:36:00,33.3,31.7,29.36,SSW,211,11.0,15.4,94,0.00,,,0.00,VWS V14.00,2013-02-11 15:36:00,
2013-02-11 10:42:00,33.3,32.0,29.36,SSW,200,6.3,12.8,95,0.00,,,0.00,VWS V14.00,2013-02-11 15:42:00,
2013-02-11 10:47:00,33.3,32.2,29.36,SSW,199,13.2,13.2,96,0.00,,,0.00,VWS V14.00,2013-02-11 15:47:00,
2013-02-11 10:53:00,33.4,32.4,29.36,SW,225,12.8,13.6,96,0.00,,,0.00,VWS V14.00,2013-02-11 15:53:00,
2013-02-11 10:59:00,33.4,32.7,29.36,SSW,205,13.2,13.2,97,0.00,,,0.00,VWS V14.00,2013-02-11 15:59:00,
2013-02-11 11:04:00,33.4,32.7,29.36,SW,217,10.5,12.3,97,0.00,,,0.00,VWS V14.00,2013-02-11 16:04:00,
2013-02-11 11:09:00,33.4,32.7,29.36,SW,233,8.1,10.5,97,0.00,,,0.00,VWS V14.00,2013-02-11 16:09:00,
2013-02-11 11:14:00,33.4,32.9,29.36,SSW,205,8.7,12.3,98,0.00,,,0.00,VWS V14.00,2013-02-11 16:14:00,
2013-02-11 11:19:00,33.3,32.8,29.36,SW,219,5.4,6.3,98,0.00,,,0.00,VWS V14.00,2013-02-11 16:19:00,
2013-02-11 11:25:00,33.3,32.8,29.36,SW,214,7.6,7.6,98,0.00,,,0.00,VWS V14.00,2013-02-11 16:25:00,
2013-02-11 11:31:00,33.4,32.9,29.36,WSW,242,8.7,8.7,98,0.00,,,0.00,VWS V14.00,2013-02-11 16:31:00,
2013-02-11 11:36:00,33.6,33.1,29.36,SSW,200,5.4,8.1,98,0.00,,,0.00,VWS V14.00,2013-02-11 16:36:00,
2013-02-11 11:42:00,33.4,32.9,29.39,SW,233,8.3,12.8,98,0.00,,,0.00,VWS V14.00,2013-02-11 16:42:00,
2013-02-11 11:47:00,33.6,33.1,29.39,SW,229,11.0,19.7,98,0.00,,,0.00,VWS V14.00,2013-02-11 16:47:00,
2013-02-11 11:53:00,33.6,33.1,29.39,SW,226,8.7,12.8,98,0.00,,,0.00,VWS V14.00,2013-02-11 16:53:00,
2013-02-11 11:59:00,33.8,33.3,29.39,SW,222,8.7,8.7,98,0.00,,,0.00,VWS V14.00,2013-02-11 16:59:00,
2013-02-11 12:04:00,33.8,33.3,29.39,SSW,202,6.3,17.0,98,0.00,,,0.00,VWS V14.00,2013-02-11 17:04:00,
2013-02-11 12:10:00,33.8,33.3,29.39,South,175,8.3,12.8,98,0.00,,,0.00,VWS V14.00,2013-02-11 17:10:00,
2013-02-11 12:16:00,33.6,33.1,29.39,SW,230,8.7,11.0,98,0.00,,,0.00,VWS V14.00,2013-02-11 17:16:00,
2013-02-11 12:21:00,33.6,33.1,29.39,SW,224,16.8,16.8,98,0.00,,,0.00,VWS V14.00,2013-02-11 17:21:00,
2013-02-11 12:27:00,33.6,33.1,29.39,WSW,238,8.1,15.0,98,0.00,,,0.00,VWS V14.00,2013-02-11 17:27:00,
2013-02-11 12:32:00,33.4,32.9,29.39,WSW,237,13.2,13.2,98,0.00,,,0.00,VWS V14.00,2013-02-11 17:32:00,
2013-02-11 12:38:00,33.4,32.9,29.39,SSW,202,3.6,8.7,98,0.00,,,0.00,VWS V14.00,2013-02-11 17:38:00,
2013-02-11 12:44:00,33.3,32.8,29.39,SW,215,19.2,19.2,98,0.00,,,0.00,VWS V14.00,2013-02-11 17:44:00,
2013-02-11 12:49:00,33.3,32.8,29.39,SW,229,15.9,15.9,98,0.00,,,0.00,VWS V14.00,2013-02-11 17:49:00,
2013-02-11 12:55:00,33.3,32.8,29.39,SW,232,8.7,8.7,98,0.00,,,0.00,VWS V14.00,2013-02-11 17:55:00,
2013-02-11 13:00:00,33.1,32.6,29.39,SW,226,10.5,10.5,98,0.00,,,0.00,VWS V14.00,2013-02-11 18:00:00,
2013-02-11 13:05:00,33.1,32.6,29.39,SW,221,10.5,10.5,98,0.00,,,0.00,VWS V14.00,2013-02-11 18:05:00,
2013-02-11 13:10:00,33.1,32.6,29.39,SW,214,10.5,10.5,98,0.00,,,0.00,VWS V14.00,2013-02-11 18:10:00,
2013-02-11 13:15:00,33.1,32.6,29.39,SW,223,10.1,10.1,98,0.00,,,0.00,VWS V14.00,2013-02-11 18:15:00,
2013-02-11 13:20:00,33.1,32.6,29.39,WSW,237,7.6,7.6,98,0.00,,,0.00,VWS V14.00,2013-02-11 18:20:00,
2013-02-11 13:26:00,33.3,32.8,29.39,SW,219,0.0,0.0,98,0.00,,,0.00,VWS V14.00,2013-02-11 18:26:00,
2013-02-11 13:31:00,33.3,32.8,29.39,SW,226,0.0,0.0,98,0.00,,,0.00,VWS V14.00,2013-02-11 18:31:00,
2013-02-11 13:37:00,33.6,33.1,29.39,SSW,208,0.0,0.0,98,0.00,,,0.00,VWS V14.00,2013-02-11 18:37:00,
2013-02-11 13:42:00,33.6,33.1,29.39,SW,227,0.0,0.0,98,0.00,,,0.00,VWS V14.00,2013-02-11 18:42:00,
2013-02-11 13:48:00,33.6,33.1,29.39,West,260,0.0,0.0,98,0.00,,,0.00,VWS V14.00,2013-02-11 18:48:00,
2013-02-11 13:54:00,33.6,33.1,29.39,SW,223,0.0,0.0,98,0.00,,,0.00,VWS V14.00,2013-02-11 18:54:00,
2013-02-11 13:59:00,33.8,33.3,29.42,SSW,212,0.0,0.0,98,0.00,,,0.00,VWS V14.00,2013-02-11 18:59:00,
2013-02-11 14:04:00,33.8,33.3,29.42,SW,232,0.0,0.0,98,0.00,,,0.00,VWS V14.00,2013-02-11 19:04:00,
2013-02-11 14:09:00,33.8,33.3,29.42,South,179,0.0,0.0,98,0.00,,,0.00,VWS V14.00,2013-02-11 19:09:00,
2013-02-11 14:15:00,33.8,33.0,29.42,SW,221,0.0,0.0,97,0.00,,,0.00,VWS V14.00,2013-02-11 19:15:00,
2013-02-11 14:20:00,33.8,33.0,29.42,SW,222,0.0,0.0,97,0.00,,,0.00,VWS V14.00,2013-02-11 19:20:00,
2013-02-11 14:26:00,33.8,33.0,29.42,SW,235,0.0,0.0,97,0.00,,,0.00,VWS V14.00,2013-02-11 19:26:00,
2013-02-11 14:31:00,33.8,33.0,29.42,WNW,292,0.0,0.0,97,0.00,,,0.00,VWS V14.00,2013-02-11 19:31:00,
2013-02-11 14:36:00,33.8,32.8,29.42,SW,216,0.0,0.0,96,0.00,,,0.00,VWS V14.00,2013-02-11 19:36:00,
2013-02-11 14:42:00,33.8,32.8,29.42,SSW,212,0.0,0.0,96,0.00,,,0.00,VWS V14.00,2013-02-11 19:42:00,
2013-02-11 14:48:00,34.0,33.0,29.42,SW,225,0.0,0.0,96,0.00,,,0.00,VWS V14.00,2013-02-11 19:48:00,
2013-02-11 14:54:00,34.0,33.0,29.42,SSW,212,0.0,0.0,96,0.00,,,0.00,VWS V14.00,2013-02-11 19:54:00,
2013-02-11 14:59:00,34.0,33.0,29.45,WSW,247,0.0,0.0,96,0.00,,,0.00,VWS V14.00,2013-02-11 19:59:00,
2013-02-11 15:04:00,34.0,33.0,29.45,SW,234,0.0,0.0,96,0.00,,,0.00,VWS V14.00,2013-02-11 20:04:00,
2013-02-11 15:09:00,34.0,32.7,29.45,SSW,209,0.0,0.0,95,0.00,,,0.00,VWS V14.00,2013-02-11 20:09:00,
2013-02-11 15:14:00,34.0,32.7,29.45,SW,220,6.3,9.2,95,0.00,,,0.00,VWS V14.00,2013-02-11 20:14:00,
2013-02-11 15:19:00,34.0,32.4,29.45,SSW,213,4.9,8.7,94,0.00,,,0.00,VWS V14.00,2013-02-11 20:19:00,
2013-02-11 15:25:00,34.0,32.4,29.45,SW,217,17.4,17.4,94,0.00,,,0.00,VWS V14.00,2013-02-11 20:25:00,
2013-02-11 15:30:00,34.2,32.1,29.45,WSW,245,10.5,10.5,92,0.00,,,0.00,VWS V14.00,2013-02-11 20:30:00,
2013-02-11 15:35:00,34.2,32.1,29.45,SW,224,5.4,8.1,92,0.00,,,0.00,VWS V14.00,2013-02-11 20:35:00,
2013-02-11 15:40:00,34.2,31.8,29.45,SW,226,8.1,9.6,91,0.00,,,0.00,VWS V14.00,2013-02-11 20:40:00,
2013-02-11 15:46:00,34.2,31.8,29.45,SW,230,10.5,11.0,91,0.00,,,0.00,VWS V14.00,2013-02-11 20:46:00,
2013-02-11 15:51:00,34.0,31.4,29.45,SSW,210,10.1,10.1,90,0.00,,,0.00,VWS V14.00,2013-02-11 20:51:00,
2013-02-11 15:56:00,34.0,31.4,29.48,SW,226,6.3,6.3,90,0.00,,,0.00,VWS V14.00,2013-02-11 20:56:00,
2013-02-11 16:02:00,34.0,31.4,29.48,WSW,246,8.1,18.8,90,0.00,,,0.00,VWS V14.00,2013-02-11 21:02:00,
2013-02-11 16:08:00,34.0,31.1,29.48,SSW,192,10.5,10.5,89,0.00,,,0.00,VWS V14.00,2013-02-11 21:08:00,
2013-02-11 16:14:00,33.8,30.9,29.48,SSW,205,11.0,13.6,89,0.00,,,0.00,VWS V14.00,2013-02-11 21:14:00,
2013-02-11 16:19:00,33.8,30.9,29.48,WSW,241,8.3,8.3,89,0.00,,,0.00,VWS V14.00,2013-02-11 21:19:00,
2013-02-11 16:25:00,33.8,30.9,29.48,SSW,209,14.1,14.1,89,0.00,,,0.00,VWS V14.00,2013-02-11 21:25:00,
2013-02-11 16:30:00,33.8,30.9,29.48,West,263,11.9,13.2,89,0.00,,,0.00,VWS V14.00,2013-02-11 21:30:00,
2013-02-11 16:36:00,33.8,30.9,29.48,SW,218,8.7,8.7,89,0.00,,,0.00,VWS V14.00,2013-02-11 21:36:00,
2013-02-11 16:42:00,33.8,30.9,29.51,SW,228,6.3,10.5,89,0.00,,,0.00,VWS V14.00,2013-02-11 21:42:00,
2013-02-11 16:47:00,33.6,31.0,29.51,SSW,196,8.1,11.0,90,0.00,,,0.00,VWS V14.00,2013-02-11 21:47:00,
2013-02-11 16:53:00,33.6,30.7,29.51,SW,218,11.0,11.0,89,0.00,,,0.00,VWS V14.00,2013-02-11 21:53:00,
2013-02-11 16:58:00,33.6,30.7,29.51,West,259,11.0,11.9,89,0.00,,,0.00,VWS V14.00,2013-02-11 21:58:00,
2013-02-11 17:04:00,33.6,30.7,29.51,SW,225,7.6,7.6,89,0.00,,,0.00,VWS V14.00,2013-02-11 22:04:00,
2013-02-11 17:09:00,33.6,30.7,29.51,WNW,301,10.5,12.8,89,0.00,,,0.00,VWS V14.00,2013-02-11 22:09:00,
2013-02-11 17:15:00,33.4,30.5,29.54,West,277,7.6,8.1,89,0.00,,,0.00,VWS V14.00,2013-02-11 22:15:00,
2013-02-11 17:21:00,33.4,30.3,29.54,WSW,251,10.1,10.1,88,0.00,,,0.00,VWS V14.00,2013-02-11 22:21:00,
2013-02-11 17:26:00,33.4,30.3,29.54,SW,234,11.0,11.0,88,0.00,,,0.00,VWS V14.00,2013-02-11 22:26:00,
2013-02-11 17:31:00,33.3,30.1,29.54,WSW,257,6.3,12.3,88,0.00,,,0.00,VWS V14.00,2013-02-11 22:31:00,
2013-02-11 17:36:00,33.3,30.1,29.54,WSW,245,6.3,8.1,88,0.00,,,0.00,VWS V14.00,2013-02-11 22:36:00,
2013-02-11 17:41:00,33.1,29.9,29.54,WSW,254,5.8,8.3,88,0.00,,,0.00,VWS V14.00,2013-02-11 22:41:00,
2013-02-11 17:47:00,33.1,29.9,29.54,SW,220,8.3,8.3,88,0.00,,,0.00,VWS V14.00,2013-02-11 22:47:00,
2013-02-11 17:52:00,32.9,29.7,29.54,West,272,8.7,11.4,88,0.00,,,0.00,VWS V14.00,2013-02-11 22:52:00,
2013-02-11 17:57:00,32.9,29.7,29.54,SW,228,7.6,13.2,88,0.00,,,0.00,VWS V14.00,2013-02-11 22:57:00,
2013-02-11 18:03:00,32.7,29.8,29.54,SSW,210,5.8,10.1,89,0.00,,,0.00,VWS V14.00,2013-02-11 23:03:00,
2013-02-11 18:08:00,32.5,29.7,29.54,WSW,244,5.8,7.6,89,0.00,,,0.00,VWS V14.00,2013-02-11 23:08:00,
2013-02-11 18:14:00,32.4,29.8,29.57,SW,235,13.2,13.2,90,0.00,,,0.00,VWS V14.00,2013-02-11 23:14:00,
2013-02-11 18:19:00,32.2,29.9,29.57,SW,231,5.4,5.4,91,0.00,,,0.00,VWS V14.00,2013-02-11 23:19:00,
2013-02-11 18:25:00,32.2,30.4,29.57,SW,233,5.8,11.4,93,0.00,,,0.00,VWS V14.00,2013-02-11 23:25:00,
2013-02-11 18:31:00,32.2,30.6,29.57,SW,219,6.3,6.3,94,0.00,,,0.00,VWS V14.00,2013-02-11 23:31:00,
2013-02-11 18:36:00,32.2,30.6,29.57,SW,224,8.1,8.7,94,0.00,,,0.00,VWS V14.00,2013-02-11 23:36:00,
2013-02-11 18:42:00,32.2,30.9,29.57,SW,220,7.6,7.6,95,0.00,,,0.00,VWS V14.00,2013-02-11 23:42:00,
2013-02-11 18:48:00,32.2,30.9,29.57,SSW,212,5.4,8.1,95,0.00,,,0.00,VWS V14.00,2013-02-11 23:48:00,
2013-02-11 18:53:00,32.2,30.9,29.57,SSW,212,4.9,7.6,95,0.00,,,0.00,VWS V14.00,2013-02-11 23:53:00,
2013-02-11 18:58:00,32.0,31.0,29.60,WSW,253,8.3,8.7,96,0.00,,,0.00,VWS V14.00,2013-02-11 23:58:00,
2013-02-11 19:04:00,32.0,31.0,29.60,WSW,245,4.9,8.1,96,0.00,,,0.00,VWS V14.00,2013-02-12 00:04:00,
2013-02-11 19:10:00,32.0,31.0,29.60,SW,220,8.1,8.1,96,0.00,,,0.00,VWS V14.00,2013-02-12 00:10:00,
2013-02-11 19:15:00,32.0,31.2,29.60,SW,214,8.1,8.3,97,0.00,,,0.00,VWS V14.00,2013-02-12 00:15:00,
2013-02-11 19:21:00,32.2,31.4,29.60,WSW,258,3.6,3.6,97,0.00,,,0.00,VWS V14.00,2013-02-12 00:21:00,
2013-02-11 19:26:00,32.2,31.4,29.60,SW,218,7.6,7.6,97,0.00,,,0.00,VWS V14.00,2013-02-12 00:26:00,
2013-02-11 19:31:00,32.2,31.4,29.60,SSW,195,5.8,7.6,97,0.00,,,0.00,VWS V14.00,2013-02-12 00:31:00,
2013-02-11 19:36:00,32.2,31.2,29.60,SSW,207,5.8,5.8,96,0.00,,,0.00,VWS V14.00,2013-02-12 00:36:00,
2013-02-11 19:42:00,32.2,31.2,29.60,WSW,254,6.3,6.3,96,0.00,,,0.00,VWS V14.00,2013-02-12 00:42:00,
2013-02-11 19:48:00,32.2,30.9,29.60,WSW,242,7.6,11.9,95,0.00,,,0.00,VWS V14.00,2013-02-12 00:48:00,
2013-02-11 19:53:00,32.2,30.6,29.60,SW,225,5.8,5.8,94,0.00,,,0.00,VWS V14.00,2013-02-12 00:53:00,
2013-02-11 19:59:00,32.4,30.3,29.63,West,275,5.4,12.3,92,0.00,,,0.00,VWS V14.00,2013-02-12 00:59:00,
2013-02-11 20:05:00,32.4,29.8,29.63,NW,310,5.8,5.8,90,0.00,,,0.00,VWS V14.00,2013-02-12 01:05:00,
2013-02-11 20:10:00,32.2,29.3,29.63,NW,311,6.3,8.7,89,0.00,,,0.00,VWS V14.00,2013-02-12 01:10:00,
2013-02-11 20:15:00,32.2,29.0,29.63,NNW,346,8.1,8.1,88,0.00,,,0.00,VWS V14.00,2013-02-12 01:15:00,
2013-02-11 20:20:00,32.2,28.8,29.63,NW,312,3.1,8.3,87,0.00,,,0.00,VWS V14.00,2013-02-12 01:20:00,
2013-02-11 20:25:00,32.2,28.8,29.63,WSW,245,5.8,5.8,87,0.00,,,0.00,VWS V14.00,2013-02-12 01:25:00,
2013-02-11 20:31:00,32.2,28.5,29.63,SW,217,3.6,5.8,86,0.00,,,0.00,VWS V14.00,2013-02-12 01:31:00,
2013-02-11 20:37:00,32.2,28.5,29.63,WSW,242,3.6,6.3,86,0.00,,,0.00,VWS V14.00,2013-02-12 01:37:00,
2013-02-11 20:42:00,32.2,28.5,29.63,SSE,167,6.3,6.3,86,0.00,,,0.00,VWS V14.00,2013-02-12 01:42:00,
2013-02-11 20:48:00,32.2,28.2,29.63,West,264,6.3,7.6,85,0.00,,,0.00,VWS V14.00,2013-02-12 01:48:00,
2013-02-11 20:54:00,32.0,28.0,29.63,SSW,208,8.1,8.1,85,0.00,,,0.00,VWS V14.00,2013-02-12 01:54:00,
2013-02-11 20:59:00,32.0,28.0,29.63,West,271,6.3,11.0,85,0.00,,,0.00,VWS V14.00,2013-02-12 01:59:00,
2013-02-11 21:05:00,32.0,27.7,29.63,West,267,8.1,8.1,84,0.00,,,0.00,VWS V14.00,2013-02-12 02:05:00,
2013-02-11 21:10:00,32.0,27.4,29.63,West,272,8.7,8.7,83,0.00,,,0.00,VWS V14.00,2013-02-12 02:10:00,
2013-02-11 21:16:00,32.0,27.1,29.63,West,275,8.1,8.1,82,0.00,,,0.00,VWS V14.00,2013-02-12 02:16:00,
2013-02-11 21:21:00,32.0,27.1,29.63,West,264,9.2,9.2,82,0.00,,,0.00,VWS V14.00,2013-02-12 02:21:00,
2013-02-11 21:27:00,31.8,26.7,29.63,NW,312,6.3,8.7,81,0.00,,,0.00,VWS V14.00,2013-02-12 02:27:00,
2013-02-11 21:32:00,31.6,26.2,29.63,WNW,288,6.3,6.3,80,0.00,,,0.00,VWS V14.00,2013-02-12 02:32:00,
2013-02-11 21:38:00,31.5,26.0,29.63,NNW,336,5.4,5.4,80,0.00,,,0.00,VWS V14.00,2013-02-12 02:38:00,
2013-02-11 21:43:00,31.5,25.7,29.63,SSW,204,8.7,8.7,79,0.00,,,0.00,VWS V14.00,2013-02-12 02:43:00,
2013-02-11 21:48:00,31.5,25.7,29.66,NW,314,3.6,8.1,79,0.00,,,0.00,VWS V14.00,2013-02-12 02:48:00,
2013-02-11 21:54:00,31.3,25.5,29.66,SSW,208,8.1,8.1,79,0.00,,,0.00,VWS V14.00,2013-02-12 02:54:00,
2013-02-11 21:59:00,31.3,25.5,29.66,WSW,248,3.1,3.1,79,0.00,,,0.00,VWS V14.00,2013-02-12 02:59:00,
2013-02-11 22:05:00,31.1,25.4,29.66,WNW,295,5.8,5.8,79,0.00,,,0.00,VWS V14.00,2013-02-12 03:05:00,
2013-02-11 22:10:00,31.1,25.4,29.66,West,267,5.8,5.8,79,0.00,,,0.00,VWS V14.00,2013-02-12 03:10:00,
2013-02-11 22:16:00,31.1,25.4,29.66,NNW,346,5.4,5.4,79,0.00,,,0.00,VWS V14.00,2013-02-12 03:16:00,
2013-02-11 22:21:00,30.9,25.2,29.66,West,277,5.4,5.4,79,0.00,,,0.00,VWS V14.00,2013-02-12 03:21:00,
2013-02-11 22:26:00,30.9,25.2,29.66,West,280,6.3,8.1,79,0.00,,,0.00,VWS V14.00,2013-02-12 03:26:00,
2013-02-11 22:32:00,30.9,25.2,29.66,SW,218,6.3,6.3,79,0.00,,,0.00,VWS V14.00,2013-02-12 03:32:00,
2013-02-11 22:37:00,30.7,25.0,29.66,WNW,289,2.7,3.1,79,0.00,,,0.00,VWS V14.00,2013-02-12 03:37:00,
2013-02-11 22:42:00,30.7,25.0,29.66,NW,325,7.2,7.2,79,0.00,,,0.00,VWS V14.00,2013-02-12 03:42:00,
2013-02-11 22:47:00,30.7,25.0,29.66,WSW,246,8.7,8.7,79,0.00,,,0.00,VWS V14.00,2013-02-12 03:47:00,
2013-02-11 22:53:00,30.7,25.0,29.66,NNW,331,4.0,5.4,79,0.00,,,0.00,VWS V14.00,2013-02-12 03:53:00,
2013-02-11 22:58:00,30.6,24.8,29.66,SW,232,7.2,7.2,79,0.00,,,0.00,VWS V14.00,2013-02-12 03:58:00,
2013-02-11 23:03:00,30.6,24.8,29.66,NW,319,7.2,7.2,79,0.00,,,0.00,VWS V14.00,2013-02-12 04:03:00,
2013-02-11 23:09:00,30.6,24.8,29.66,NW,320,10.5,10.5,79,0.00,,,0.00,VWS V14.00,2013-02-12 04:09:00,
2013-02-11 23:15:00,30.4,24.7,29.66,SSW,204,6.3,6.3,79,0.00,,,0.00,VWS V14.00,2013-02-12 04:15:00,
2013-02-11 23:20:00,30.4,24.7,29.66,North,5,2.7,5.4,79,0.00,,,0.00,VWS V14.00,2013-02-12 04:20:00,
2013-02-11 23:25:00,30.4,24.4,29.69,SSW,209,6.3,10.1,78,0.00,,,0.00,VWS V14.00,2013-02-12 04:25:00,
2013-02-11 23:30:00,30.4,24.4,29.69,WSW,242,5.4,5.4,78,0.00,,,0.00,VWS V14.00,2013-02-12 04:30:00,
2013-02-11 23:36:00,30.2,24.2,29.69,West,267,4.0,4.0,78,0.00,,,0.00,VWS V14.00,2013-02-12 04:36:00,
2013-02-11 23:41:00,30.2,24.2,29.69,SW,232,5.4,10.1,78,0.00,,,0.00,VWS V14.00,2013-02-12 04:41:00,
2013-02-11 23:47:00,30.2,24.2,29.69,SSW,209,3.1,7.2,78,0.00,,,0.00,VWS V14.00,2013-02-12 04:47:00,
2013-02-11 23:52:00,30.2,24.2,29.69,SSW,201,7.6,7.6,78,0.00,,,0.00,VWS V14.00,2013-02-12 04:52:00,
2013-02-11 23:57:00,30.0,24.0,29.69,WNW,285,3.6,10.5,78,0.00,,,0.00,VWS V14.00,2013-02-12 04:57:00,